Location: *
(48.4333°N, 5.0333°W)
Time: 09:26:33
(UTC+00:00)

LilacSat-2 - Pass Details

Date: 25 October 2021
Orbit: 511 x 532 km, 97.5° (Epoch: 28 November)

Event Time Altitude Azimuth Distance (km) Brightness Sun altitude
Rises 18:11:59 0° 202° (SSW) 2,638 ? -10.5°
Reaches altitude 10° 18:14:32 10° 220° (SW) 1,752 ? -10.9°
Maximum altitude 18:17:19 19° 267° (W) 1,270 ? -11.4°
Drops below altitude 10° 18:20:06 10° 315° (NW) 1,755 ? -11.8°
Sets 18:22:40 0° 333° (NNW) 2,644 ? -12.3°
